Location: Buckeye Ditch
(40.9104°N, 122.9517°W)
Time: 19:38:54
(UTC+00:00)

BlueWalker 3 - Pass Details

Date: 01 July 2024
Orbit: 480 x 491 km, 53.2° (Epoch: 24 July)

Event Time Altitude Azimuth Distance (km) Brightness Sun altitude
Rises 07:02:23 0° 311° (NW) 2,540 6.5 -23.8°
Reaches altitude 10° 07:04:34 10° 314° (NW) 1,657 5.4 -23.9°
Enters shadow 07:07:44 54° 352° (N) 586 2.5 -24.1°
